{"data":{"norad_id":65563,"epoch":"2026-05-24T17:37:53.005728Z","epoch_age_seconds":97645,"freshness":"FRESH","line1":"1 65563U 25202A   26144.73464127 -.00000019  00000+0  00000+0 0  9996","line2":"2 65563  19.9450 232.2660 0007761 208.7138 151.2747  5.31206881 10840","mean_motion":5.31206881,"eccentricity":0.0007761,"inclination_deg":19.945,"raan_deg":232.266,"arg_perigee_deg":208.7138,"mean_anomaly_deg":151.2747,"bstar":0,"rev_number":1084,"period_min":271.08082585248,"perigee_km":7485.8728997974,"apogee_km":7507.4093303876,"semimajor_km":13874.778115092,"source":"CELESTRAK","updated_at":"2026-05-25T13:38:05.517355Z"}}